YD2CLX-15 Weather Reports


time (UTC)temp
C
wind
direction
speed
KPH
gust
KPH
rain 1hr
cm
rain 24hr
cm
rain mn
cm
humidity
%
barometer
mb
20260509201503 18 235 1.6 4.8 0.00 0.00 0.00 95 1010.0
20260509200004 18 235 1.6 4.8 0.00 0.00 0.00 96 1011.0
20260509194504 18 235 1.6 4.8 0.00 0.00 0.00 96 1011.0
20260509193003 18 235 1.6 4.8 0.00 0.00 0.00 96 1011.0
20260509191503 18 245 1.6 4.8 0.03 0.00 0.00 95 1011.0
20260509190004 19 245 1.6 4.8 0.00 0.00 0.00 96 1011.0
20260509184503 19 245 1.6 4.8 0.00 0.00 0.00 96 1012.0
20260509183004 19 245 1.6 4.8 0.00 0.00 0.00 96 1012.0
20260509181504 19 237 1.6 4.8 0.00 0.00 0.00 96 1012.0
20260509180004 19 237 1.6 4.8 0.00 0.00 0.00 96 1012.0
20260509174504 19 237 1.6 4.8 0.00 0.00 0.00 96 1012.0
20260509173004 19 217 1.6 4.8 0.00 0.00 0.00 96 1012.0
20260509171503 19 189 1.6 4.8 0.00 0.00 0.00 95 1012.0
20260509170003 19 189 1.6 4.8 0.00 0.00 0.00 96 1012.0
20260509164504 19 189 1.6 4.8 0.00 0.00 0.00 96 1012.0
20260509163003 19 189 1.6 4.8 0.00 0.00 0.00 96 1013.0
20260509161503 20 146 0.0 3.2 0.00 0.00 0.00 95 1012.0
20260509160004 19 146 0.0 3.2 0.00 0.00 0.00 96 1013.0
20260509154504 19 146 0.0 3.2 0.00 0.00 0.00 96 1013.0
20260509153004 19 146 0.0 3.2 0.00 0.00 0.00 96 1013.0
20260509151503 19 120 1.6 3.2 0.00 0.00 0.00 95 1013.0
20260509150004 20 120 1.6 3.2 0.00 0.00 0.00 96 1013.0
20260509144503 20 120 1.6 3.2 0.00 0.00 0.00 95 1013.0
20260509143003 20 120 1.6 3.2 0.00 0.00 0.00 95 1013.0
20260509141503 20 123 1.6 3.2 0.00 0.00 0.00 94 1012.0
20260509140004 20 123 1.6 3.2 0.00 0.00 0.00 95 1013.0
20260509134504 20 123 1.6 3.2 0.00 0.00 0.00 95 1013.0
20260509133004 20 123 1.6 3.2 0.00 0.00 0.00 95 1013.0
20260509131503 20 143 1.6 4.8 0.00 0.00 0.00 93 1012.0
20260509130003 20 143 1.6 4.8 0.00 0.00 0.00 95 1012.0
20260509124504 21 143 1.6 4.8 0.00 0.00 0.00 95 1012.0
20260509123016 20 143 1.6 4.8 0.00 0.00 0.00 95 1012.0
20260509121514 20 217 1.6 4.8 0.00 0.00 0.00 93 1011.0
20260509120021 21 217 1.6 4.8 0.00 0.00 0.00 93 1012.0
20260509114514 21 217 1.6 4.8 0.00 0.00 0.00 93 1012.0
20260509113021 21 189 1.6 3.2 0.00 0.00 0.00 94 1012.0
20260509111514 21 261 1.6 3.2 0.00 0.00 0.00 92 1011.0
20260509110029 13 209 4.8 6.4 0.00 0.00 0.00 85 1011.0
20260509104515 15 209 4.8 6.4 0.00 0.00 0.00 85 1011.0
20260509103019 16 209 4.8 6.4 0.00 0.00 0.00 85 1011.0
20260509101516 17 209 4.8 6.4 0.00 0.00 0.00 85 1010.0
20260509100031 18 209 4.8 6.4 0.00 0.00 0.00 85 1010.0
20260509094517 19 209 4.8 6.4 0.00 0.00 0.00 85 1010.0
20260509093021 20 209 4.8 6.4 0.00 0.00 0.00 85 1010.0
20260509091515 21 209 4.8 6.4 0.00 0.00 0.00 85 1009.0
20260509090024 15 219 4.8 6.4 0.00 0.00 0.00 79 1010.0
20260509084517 16 219 4.8 6.4 0.00 0.00 0.00 79 1010.0
20260509083021 17 219 4.8 6.4 0.00 0.00 0.00 79 1010.0
20260509081518 18 219 4.8 6.4 0.00 0.00 0.00 79 1009.0
20260509080021 20 219 4.8 6.4 0.00 0.00 0.00 79 1009.0
20260509074518 21 219 4.8 6.4 0.00 0.00 0.00 79 1009.0
20260509073021 17 224 4.8 6.4 0.00 0.00 0.00 83 1009.0
20260509071517 18 224 4.8 6.4 0.00 0.00 0.00 83 1009.0
20260509070018 19 224 4.8 6.4 0.00 0.00 0.00 83 1009.0
20260509064518 20 224 4.8 6.4 0.00 0.00 0.00 83 1009.0
20260509063022 21 224 4.8 6.4 0.00 0.00 0.00 83 1009.0
20260509061519 22 224 4.8 6.4 0.00 0.00 0.00 83 1009.0
20260509060020 18 210 3.2 4.8 0.00 0.00 0.00 78 1010.0
20260509054519 19 210 3.2 4.8 0.00 0.00 0.00 78 1010.0
20260509053024 20 210 3.2 4.8 0.00 0.00 0.00 78 1010.0
20260509051516 21 210 3.2 4.8 0.00 0.00 0.00 78 1010.0
20260509050019 22 210 3.2 4.8 0.00 0.00 0.00 78 1010.0
20260509044514 18 191 4.8 4.8 0.00 0.00 0.00 79 1010.0
20260509043017 19 191 4.8 4.8 0.00 0.00 0.00 79 1010.0
20260509041515 20 191 4.8 4.8 0.00 0.00 0.00 79 1011.0
20260509040023 21 191 4.8 4.8 0.00 0.00 0.00 79 1011.0
20260509034513 22 191 4.8 4.8 0.00 0.00 0.00 79 1011.0
20260509033016 18 180 4.8 4.8 0.00 0.00 0.00 81 1011.0
20260509031514 20 180 4.8 4.8 0.00 0.00 0.00 81 1012.0
20260509030021 21 180 4.8 4.8 0.00 0.00 0.00 81 1012.0
20260509024513 22 180 4.8 4.8 0.00 0.00 0.00 81 1012.0
20260509023015 18 171 3.2 3.2 0.00 0.00 0.00 85 1012.0
20260509021512 19 171 3.2 3.2 0.00 0.00 0.00 85 1012.0
20260509020017 20 171 3.2 3.2 0.00 0.00 0.00 85 1012.0
20260509014513 21 171 3.2 3.2 0.00 0.00 0.00 85 1012.0
20260509013014 17 128 1.6 3.2 0.00 0.00 0.00 89 1012.0
20260509011512 18 128 1.6 3.2 0.00 0.00 0.00 89 1012.0
20260509010016 19 128 1.6 3.2 0.00 0.00 0.00 89 1013.0
20260509004512 20 128 1.6 3.2 0.00 0.00 0.00 89 1012.0
20260509003013 16 128 1.6 3.2 0.00 0.00 0.00 93 1012.0
20260509001512 17 81 0.0 3.2 0.00 0.00 0.00 93 1012.0
20260509000016 18 81 0.0 3.2 0.00 0.00 0.00 93 1012.0
20260508234512 19 81 0.0 3.2 0.00 0.00 0.00 93 1012.0
20260508233012 12 353 1.6 3.2 0.00 0.00 0.00 95 1012.0
20260508231507 13 353 1.6 3.2 0.00 0.00 0.00 95 1011.0
20260508230007 14 353 1.6 3.2 0.00 0.00 0.00 95 1011.0
20260508224507 15 353 1.6 3.2 0.00 0.00 0.00 95 1011.0
20260508223008 16 353 1.6 3.2 0.00 0.00 0.00 95 1011.0
20260508221507 17 353 1.6 3.2 0.00 0.00 0.00 95 1011.0
20260508220008 18 353 1.6 3.2 0.00 0.00 0.00 95 1011.0
20260508214508 12 338 1.6 3.2 0.00 0.00 0.00 94 1011.0
20260508213008 13 338 1.6 3.2 0.00 0.00 0.00 94 1011.0
20260508211508 14 338 1.6 3.2 0.00 0.00 0.00 94 1010.0
20260508210011 15 338 1.6 3.2 0.00 0.00 0.00 94 1011.0
20260508204509 16 338 1.6 3.2 0.00 0.00 0.00 94 1011.0
20260508203009 17 338 1.6 3.2 0.00 0.00 0.00 94 1011.0